RH
67 63 67 52 48 45 48 51 49 42 40 38 34 30 32 33 32 31 30 32 34 36 38 40 41 41 40 39 33 20 12 8
60 64 54 54 52 51 54 55 41 38 35 34 36 37 36 34 34 36 36 36 38 42 44 46 44 40 30 12 6 6 6 6
64 60 62 55 55 62 66 52 43 44 42 42 40 37 37 36 33 32 35 41 43 44 45 41 21 7 7 7 7 6 5 5
60 70 60 58 59 61 67 61 57 50 44 40 39 37 34 30 30 37 45 45 43 38 21 7 7 8 7 6 6 5 5 4
71 80 76 76 73 76 72 68 60 49 48 44 40 33 28 32 41 47 47 35 14 7 7 8 8 7 7 6 5 4 4 3
68 75 71 76 77 74 70 68 50 44 41 34 33 33 35 37 41 48 46 18 6 8 9 8 8 7 6 5 4 3 2 2
64 72 70 72 73 72 75 75 57 43 39 42 41 38 38 42 48 49 20 7 8 9 8 8 8 7 6 5 3 2 2 2
66 77 70 72 73 74 75 81 70 50 45 42 32 29 38 49 53 35 8 7 9 9 9 8 7 6 6 4 3 2 2 2
75 79 73 72 76 73 74 78 76 57 48 41 30 37 46 55 53 16 7 9 10 9 9 8 7 7 6 5 4 3 2 2
72 77 76 70 78 72 71 78 74 62 52 44 34 38 48 58 43 10 7 10 10 9 8 8 7 7 6 6 5 4 3 3
72 77 78 77 74 77 85 85 77 69 57 45 34 42 52 58 32 8 8 10 10 10 9 8 8 8 8 6 5 4 4 4
71 75 74 72 77 73 77 89 84 70 60 38 36 47 54 58 22 8 9 10 11 10 10 10 9 9 9 8 6 5 5 6
59 59 60 67 73 73 82 91 85 72 60 34 41 49 56 54 14 8 9 11 11 11 10 10 10 11 10 9 7 6 5 7
52 51 56 65 71 77 81 98 89 70 52 35 45 52 59 45 10 8 10 11 12 11 11 11 11 12 12 10 8 6 6 8
54 58 62 64 70 81 90 99 92 69 39 39 51 56 64 36 8 8 10 12 12 12 11 12 12 13 13 12 9 7 8 10
56 63 64 65 74 88 96 95 85 52 40 43 54 60 66 27 8 8 10 12 13 13 12 12 13 14 15 13 10 8 8 10
64 66 66 69 78 96 97 91 64 43 46 46 56 63 66 20 7 9 11 12 14 14 13 13 14 16 16 15 11 8 8 10
71 70 74 75 90 97 93 78 48 49 41 43 55 64 63 15 7 8 10 13 15 15 14 14 15 17 18 16 12 8 8 12
50 63 61 82 89 87 80 58 51 40 36 43 52 67 55 13 7 8 10 13 15 16 16 16 17 19 20 18 13 9 9 14
Wind_Speed
10 15 11 3 3 1 1 6 8 8 10 12 14 16 17 18 19 21 21 22 24 25 25 26 27 27 26 26 27 24 21 20
15 9 2 3 4 4 5 5 8 9 11 12 13 15 16 17 18 19 21 22 23 23 23 22 23 23 24 23 24 27 27 24
8 6 2 8 11 6 5 10 8 9 11 12 12 13 14 16 19 21 21 21 20 19 20 20 19 21 22 24 26 27 30 29
10 3 4 9 10 8 9 9 11 12 11 11 12 14 16 19 21 21 20 19 18 17 17 18 20 22 24 25 27 29 29 29
9 2 7 6 6 3 3 10 13 12 12 13 15 19 20 21 22 22 18 16 15 16 18 20 22 23 24 25 26 28 29 31
11 5 5 7 7 3 5 11 14 14 15 17 20 22 23 25 24 23 21 17 18 20 20 20 22 24 26 26 26 27 30 31
14 7 8 7 4 1 6 11 15 15 17 21 23 25 25 25 24 22 19 19 20 21 21 22 23 25 27 28 30 31 31 31
16 10 11 8 5 4 7 13 17 18 19 23 26 25 25 24 23 21 20 21 22 23 24 25 26 27 28 29 31 33 33 33
17 12 13 9 7 6 10 15 17 19 22 26 27 25 25 24 22 20 20 21 23 25 26 27 28 29 29 30 31 33 34 35
19 15 15 13 11 11 14 17 17 20 23 27 28 26 25 24 21 19 19 22 23 25 26 28 29 30 31 32 33 34 35 35
20 18 16 18 17 14 17 19 22 22 26 29 29 28 26 24 21 20 21 22 24 26 27 28 29 30 31 33 34 35 36 36
18 19 18 19 19 18 22 20 22 23 28 30 30 28 27 25 22 21 22 24 25 27 28 29 29 31 32 33 34 36 36 36
18 18 19 21 21 21 24 24 25 25 29 31 30 29 28 25 23 23 24 25 27 28 29 30 31 32 33 33 35 36 37 36
20 19 21 23 25 26 26 28 26 26 31 32 31 30 28 25 23 24 25 27 28 29 30 31 32 32 34 34 35 36 37 37
23 23 23 23 27 28 27 28 26 29 32 32 31 30 28 25 24 25 26 28 29 31 31 32 33 33 34 35 36 37 38 38
27 26 25 26 28 26 30 25 27 30 32 33 32 31 28 25 25 26 27 29 30 31 32 33 34 35 35 36 37 39 39 39
27 29 27 26 27 28 33 23 28 31 32 33 32 31 28 25 26 26 28 29 31 31 32 33 35 36 36 37 37 39 40 41
30 28 27 25 26 27 25 27 30 32 32 33 33 31 27 26 26 27 28 30 31 32 33 34 35 36 36 37 38 39 40 40
26 28 25 22 23 25 25 28 30 31 32 33 33 31 27 26 27 28 28 30 31 33 34 34 35 37 36 37 38 39 39 39
Wind_Direction
217 204 312 245 169 217 146 30 1 353 328 315 303 299 298 300 302 300 298 301 303 301 300 300 302 306 311 314 314 316 318 316
196 281 163 199 176 159 88 38 337 324 312 304 299 304 305 305 302 304 309 307 302 301 301 307 312 312 311 314 318 316 314 311
241 145 198 215 194 152 69 352 350 341 327 315 315 313 311 314 319 319 314 307 304 305 307 309 311 313 317 318 317 314 313 312
168 203 203 243 245 249 269 331 348 341 332 325 324 325 328 326 325 323 319 314 313 310 311 316 317 316 316 317 318 316 315 316
182 308 247 219 212 161 335 343 346 345 341 336 333 334 333 331 332 328 324 319 318 317 314 314 315 316 316 317 319 321 322 321
203 265 188 153 160 146 354 348 348 353 347 340 335 334 334 334 333 326 321 320 319 318 318 319 320 320 321 323 327 328 326 325
212 220 198 179 164 359 338 337 345 348 343 338 335 335 334 329 324 320 322 323 319 317 318 321 324 326 328 329 331 332 331 328
218 220 211 209 217 282 317 327 336 338 337 335 332 328 324 322 323 319 318 316 318 320 323 325 327 330 332 333 333 333 332 331
217 230 223 224 240 278 298 309 317 328 333 330 326 325 323 320 318 312 311 312 316 320 322 326 329 332 332 332 332 332 332 332
228 236 230 234 242 269 309 309 313 323 325 324 323 323 319 316 311 307 308 313 317 318 321 324 328 331 331 332 332 333 332 331
238 240 242 241 248 271 284 293 306 313 320 322 321 320 318 315 310 309 311 315 317 318 319 323 327 329 330 331 331 332 331 330
244 243 243 249 254 267 276 287 301 308 316 318 319 318 318 314 310 310 312 315 316 317 320 322 326 329 330 330 330 330 329 328
243 246 251 255 257 269 275 280 296 305 311 316 318 317 316 311 309 309 312 314 316 318 319 321 324 328 329 329 328 328 328 327
241 245 256 266 269 268 274 283 298 305 309 314 314 316 314 309 306 308 312 314 316 316 317 319 323 326 328 328 327 328 328 327
243 248 255 266 269 270 276 290 291 302 307 310 312 316 313 307 306 307 310 313 315 315 316 318 321 324 327 327 327 328 328 326
245 248 256 269 273 269 269 285 297 300 305 308 311 314 309 304 304 305 310 312 313 313 315 316 319 323 326 327 328 328 328 326
249 252 261 272 273 267 275 285 295 299 303 305 309 310 307 302 302 305 308 311 312 313 314 315 318 322 325 327 327 328 327 326
252 251 265 267 271 269 281 288 294 298 300 303 305 307 303 300 301 304 307 310 312 313 314 314 317 320 324 326 327 327 328 326
255 252 250 244 255 265 279 291 294 296 298 299 302 303 299 298 300 302 306 310 312 313 312 314 316 318 324 325 326 327 328 325